Jefferson City, MO

7:48 AM CDT on October 22, 2017 (GMT -0500)
Jefferson City Memorial

Weather History for KJEF - August, 2013

Change the Weather History Date:

Sunday, August 4, 2013

  Actual Average Record
Temperature  
Mean Temperature 72 °F -  
Max Temperature 77 °F 89 °F 108 °F (1918)
Min Temperature 66 °F 64 °F 53 °F (1969)
Cooling Degree Days 6    
Growing Degree Days 22 (Base 50)    
Moisture  
Dew Point 64 °F    
Average Humidity 75    
Maximum Humidity 87    
Minimum Humidity 58    
Precipitation  
Precipitation 0.04 in - - ()
Sea Level Pressure  
Sea Level Pressure 30.10 in    
Wind  
Wind Speed 3 mph (ESE)    
Max Wind Speed 8 mph    
Max Gust Speed -    
Visibility 9 miles    
Events Rain    
Averages and records for this station are not official NWS values.
T = Trace of Precipitation, MM = Missing Value Source: NWS Daily Summary

Daily Weather History Graph

Daily Weather History Graph

Search for Another Location

Airport or City:

Trip Planner

Search our weather history database for the weather conditions in past years. The results will help you decide how hot, cold, wet, or windy it might be!

Date:

Astronomy

Aug. 04, 2013 Rise Set
Actual Time 6:13 AM CDT 8:15 PM CDT
Civil Twilight 5:43 AM CDT 8:44 PM CDT
Nautical Twilight 5:08 AM CDT 9:20 PM CDT
Astronomical Twilight 4:29 AM CDT 9:58 PM CDT
Moon 4:14 AM CDT (8/4) 6:39 PM CDT (8/4)
Length of Visible Light 15h 00m
Length of Day
14h 02m
Waning Crescent, 4% of the Moon is Illuminated
Aug 4
Waning Crescent
Aug 6
New
Aug 14
First Quarter
Aug 20
Full
Aug 28
Last Quarter

Hourly Weather History & Observations

Time (CDT) Temp. Dew Point Humidity Pressure Visibility Wind Dir Wind Speed Gust Speed Precip Events Conditions
12:53 AM 72.0 °F 63.0 °F 73% 30.10 in 10.0 mi Calm Calm - N/A   Clear
1:53 AM 69.1 °F 63.0 °F 81% 30.09 in 10.0 mi Calm Calm - N/A   Scattered Clouds
2:53 AM 69.1 °F 62.1 °F 78% 30.06 in 10.0 mi SE 3.5 mph - N/A   Scattered Clouds
3:53 AM 70.0 °F 61.0 °F 73% 30.10 in 10.0 mi Calm Calm - N/A   Mostly Cloudy
4:53 AM 68.0 °F 62.1 °F 81% 30.11 in 10.0 mi Calm Calm - N/A   Mostly Cloudy
5:53 AM 66.9 °F 60.1 °F 79% 30.10 in 10.0 mi SSE 4.6 mph - N/A   Partly Cloudy
6:53 AM 66.0 °F 60.1 °F 81% 30.11 in 10.0 mi SE 3.5 mph - N/A   Partly Cloudy
7:53 AM 66.9 °F 62.1 °F 84% 30.12 in 10.0 mi Calm Calm - N/A   Mostly Cloudy
8:53 AM 70.0 °F 61.0 °F 73% 30.14 in 10.0 mi ESE 4.6 mph - N/A   Clear
9:53 AM 72.0 °F 61.0 °F 68% 30.13 in 10.0 mi ESE 8.1 mph - N/A   Clear
10:53 AM 75.0 °F 62.1 °F 64% 30.13 in 10.0 mi ESE 6.9 mph - N/A   Clear
11:53 AM 75.9 °F 60.1 °F 58% 30.14 in 10.0 mi East 5.8 mph - N/A   Mostly Cloudy
12:00 PM 75.2 °F 60.8 °F 61% 30.17 in 0.2 mi East 5.8 mph - N/A   Mostly Cloudy
12:06 PM 75.2 °F 60.8 °F 61% 30.17 in 1.5 mi East 5.8 mph - N/A   Mostly Cloudy
12:08 PM 75.2 °F 60.8 °F 61% 30.17 in 10.0 mi East 4.6 mph - N/A   Mostly Cloudy
12:53 PM 75.9 °F 62.1 °F 62% 30.11 in 10.0 mi East 6.9 mph - N/A   Overcast
1:53 PM 77.0 °F 61.0 °F 58% 30.12 in 10.0 mi Calm Calm - N/A   Overcast
2:35 PM 73.4 °F 64.4 °F 73% 30.14 in 1.8 mi South 3.5 mph - 0.04 in Rain Heavy Rain
2:40 PM 73.4 °F 64.4 °F 73% 30.14 in 3.0 mi SSE 4.6 mph - 0.04 in Rain Light Rain
2:53 PM 73.0 °F 64.9 °F 76% 30.10 in 10.0 mi SE 5.8 mph - 0.04 in   Overcast
3:53 PM 73.0 °F 66.0 °F 79% 30.08 in 10.0 mi ESE 4.6 mph - N/A   Scattered Clouds
4:53 PM 73.0 °F 66.0 °F 79% 30.07 in 10.0 mi East 5.8 mph - N/A   Clear
5:53 PM 73.0 °F 66.9 °F 81% 30.06 in 10.0 mi ESE 4.6 mph - N/A   Clear
6:21 PM 73.4 °F 66.2 °F 78% 30.08 in 10.0 mi ESE 5.8 mph - N/A   Mostly Cloudy
6:33 PM 73.4 °F 66.2 °F 78% 30.08 in 10.0 mi ESE 3.5 mph - N/A   Scattered Clouds
6:53 PM 73.0 °F 66.9 °F 81% 30.04 in 10.0 mi ESE 3.5 mph - N/A   Clear
7:53 PM 72.0 °F 66.9 °F 84% 30.02 in 10.0 mi East 5.8 mph - N/A   Clear
8:53 PM 71.1 °F 66.9 °F 87% 30.03 in 10.0 mi SE 3.5 mph - N/A   Clear
9:53 PM 71.1 °F 66.9 °F 87% 30.05 in 10.0 mi Calm Calm - N/A   Scattered Clouds
10:53 PM 71.1 °F 66.9 °F 87% 30.06 in 10.0 mi East 4.6 mph - N/A   Overcast
11:53 PM 71.1 °F 66.9 °F 87% 30.04 in 10.0 mi East 3.5 mph - N/A   Overcast